Data supplied by UK-AIR on 1/4/2011
All Data GMT hour ending 
Status: R =Ratified P=Provisional,P*=As supplied
,,Wicken Fen,,,,,,,,,,,,,,,,,,,,,,,
Date,time,"Nitric oxide",status,unit,"Nitrogen dioxide",status,unit,"Nitrogen oxides as nitrogen dioxide",status,unit,"Ozone",status,unit,"Sulphur dioxide",status,unit
 
01-01-2010,01:00,0.5,R,ugm-3,0.8,R,ugm-3,1.5,R,ugm-3,54,R,ugm-3,1.3,R,ugm-3
01-01-2010,02:00,,,,,,,,,,54,R,ugm-3,,,
01-01-2010,03:00,0.0,R,ugm-3,2.7,R,ugm-3,2.7,R,ugm-3,60,R,ugm-3,2.1,R,ugm-3
01-01-2010,04:00,0.4,R,ugm-3,1.5,R,ugm-3,2.1,R,ugm-3,66,R,ugm-3,2.1,R,ugm-3
01-01-2010,05:00,0.0,R,ugm-3,1.1,R,ugm-3,1.1,R,ugm-3,60,R,ugm-3,1.6,R,ugm-3
01-01-2010,06:00,0.4,R,ugm-3,1.1,R,ugm-3,1.7,R,ugm-3,56,R,ugm-3,2.1,R,ugm-3
01-01-2010,07:00,0.0,R,ugm-3,0.6,R,ugm-3,0.6,R,ugm-3,56,R,ugm-3,2.1,R,ugm-3
01-01-2010,08:00,0.0,R,ugm-3,1.5,R,ugm-3,1.5,R,ugm-3,62,R,ugm-3,2.1,R,ugm-3
01-01-2010,09:00,0.0,R,ugm-3,1.5,R,ugm-3,1.5,R,ugm-3,58,R,ugm-3,1.6,R,ugm-3
01-01-2010,10:00,0.8,R,ugm-3,1.1,R,ugm-3,2.3,R,ugm-3,62,R,ugm-3,2.1,R,ugm-3
01-01-2010,11:00,1.0,R,ugm-3,3.6,R,ugm-3,5.2,R,ugm-3,54,R,ugm-3,3.2,R,ugm-3
01-01-2010,12:00,1.8,R,ugm-3,7.4,R,ugm-3,10.1,R,ugm-3,44,R,ugm-3,4.8,R,ugm-3
01-01-2010,13:00,1.4,R,ugm-3,4.8,R,ugm-3,6.9,R,ugm-3,46,R,ugm-3,3.2,R,ugm-3
01-01-2010,14:00,1.0,R,ugm-3,6.3,R,ugm-3,7.8,R,ugm-3,50,R,ugm-3,5.9,R,ugm-3
01-01-2010,15:00,1.8,R,ugm-3,9.2,R,ugm-3,11.8,R,ugm-3,44,R,ugm-3,6.9,R,ugm-3
01-01-2010,16:00,0.8,R,ugm-3,9.2,R,ugm-3,10.3,R,ugm-3,36,R,ugm-3,4.3,R,ugm-3
01-01-2010,17:00,0.8,R,ugm-3,9.0,R,ugm-3,10.1,R,ugm-3,26,R,ugm-3,3.7,R,ugm-3
01-01-2010,18:00,0.8,R,ugm-3,16.4,R,ugm-3,17.6,R,ugm-3,18,R,ugm-3,2.7,R,ugm-3
01-01-2010,19:00,1.4,R,ugm-3,32.9,R,ugm-3,35.0,R,ugm-3,6,R,ugm-3,2.1,R,ugm-3
01-01-2010,20:00,1.4,R,ugm-3,37.2,R,ugm-3,39.3,R,ugm-3,2,R,ugm-3,2.7,R,ugm-3
01-01-2010,21:00,1.4,R,ugm-3,35.5,R,ugm-3,37.6,R,ugm-3,4,R,ugm-3,3.2,R,ugm-3
01-01-2010,22:00,1.4,R,ugm-3,33.4,R,ugm-3,35.5,R,ugm-3,4,R,ugm-3,2.1,R,ugm-3
01-01-2010,23:00,1.0,R,ugm-3,27.1,R,ugm-3,28.7,R,ugm-3,10,R,ugm-3,2.1,R,ugm-3
01-01-2010,24:00,0.8,R,ugm-3,20.6,R,ugm-3,21.8,R,ugm-3,18,R,ugm-3,2.1,R,ugm-3
02-01-2010,01:00,0.9,R,ugm-3,19.1,R,ugm-3,20.4,R,ugm-3,22,R,ugm-3,2.1,R,ugm-3
02-01-2010,02:00,,,,,,,,,,24,R,ugm-3,2.1,R,ugm-3
02-01-2010,03:00,0.0,R,ugm-3,13.4,R,ugm-3,13.4,R,ugm-3,30,R,ugm-3,2.1,R,ugm-3
02-01-2010,04:00,0.5,R,ugm-3,10.7,R,ugm-3,11.5,R,ugm-3,34,R,ugm-3,2.7,R,ugm-3
02-01-2010,05:00,0.4,R,ugm-3,9.0,R,ugm-3,9.6,R,ugm-3,40,R,ugm-3,3.7,R,ugm-3
02-01-2010,06:00,0.4,R,ugm-3,8.6,R,ugm-3,9.2,R,ugm-3,36,R,ugm-3,2.7,R,ugm-3
02-01-2010,07:00,0.4,R,ugm-3,14.3,R,ugm-3,14.9,R,ugm-3,24,R,ugm-3,3.7,R,ugm-3
02-01-2010,08:00,0.4,R,ugm-3,14.3,R,ugm-3,14.9,R,ugm-3,22,R,ugm-3,1.1,R,ugm-3
02-01-2010,09:00,0.8,R,ugm-3,13.9,R,ugm-3,15.1,R,ugm-3,26,R,ugm-3,1.6,R,ugm-3
02-01-2010,10:00,2.1,R,ugm-3,11.3,R,ugm-3,14.5,R,ugm-3,34,R,ugm-3,1.6,R,ugm-3
02-01-2010,11:00,3.5,R,ugm-3,12.2,R,ugm-3,17.6,R,ugm-3,34,R,ugm-3,2.1,R,ugm-3
02-01-2010,12:00,2.8,R,ugm-3,10.7,R,ugm-3,14.9,R,ugm-3,40,R,ugm-3,1.6,R,ugm-3
02-01-2010,13:00,1.4,R,ugm-3,13.4,R,ugm-3,15.5,R,ugm-3,36,R,ugm-3,1.1,R,ugm-3
02-01-2010,14:00,0.4,R,ugm-3,9.6,R,ugm-3,10.1,R,ugm-3,46,R,ugm-3,0.5,R,ugm-3
02-01-2010,15:00,1.4,R,ugm-3,13.9,R,ugm-3,16.0,R,ugm-3,42,R,ugm-3,1.6,R,ugm-3
02-01-2010,16:00,1.4,R,ugm-3,17.0,R,ugm-3,19.1,R,ugm-3,30,R,ugm-3,0.0,R,ugm-3
02-01-2010,17:00,0.0,R,ugm-3,15.5,R,ugm-3,15.5,R,ugm-3,34,R,ugm-3,0.0,R,ugm-3
02-01-2010,18:00,0.0,R,ugm-3,6.9,R,ugm-3,6.9,R,ugm-3,48,R,ugm-3,0.0,R,ugm-3
02-01-2010,19:00,0.4,R,ugm-3,8.4,R,ugm-3,9.0,R,ugm-3,42,R,ugm-3,0.0,R,ugm-3
02-01-2010,20:00,0.0,R,ugm-3,11.3,R,ugm-3,11.3,R,ugm-3,38,R,ugm-3,1.1,R,ugm-3
02-01-2010,21:00,0.0,R,ugm-3,16.4,R,ugm-3,16.4,R,ugm-3,30,R,ugm-3,0.0,R,ugm-3
02-01-2010,22:00,0.4,R,ugm-3,15.5,R,ugm-3,16.0,R,ugm-3,26,R,ugm-3,1.1,R,ugm-3
02-01-2010,23:00,0.8,R,ugm-3,17.6,R,ugm-3,18.7,R,ugm-3,20,R,ugm-3,1.6,R,ugm-3
02-01-2010,24:00,0.8,R,ugm-3,17.6,R,ugm-3,18.7,R,ugm-3,18,R,ugm-3,1.1,R,ugm-3
03-01-2010,01:00,0.5,R,ugm-3,12.8,R,ugm-3,13.6,R,ugm-3,22,R,ugm-3,2.9,R,ugm-3
03-01-2010,02:00,,,,,,,,,,28,R,ugm-3,2.1,R,ugm-3
03-01-2010,03:00,0.0,R,ugm-3,5.3,R,ugm-3,5.3,R,ugm-3,32,R,ugm-3,2.1,R,ugm-3
03-01-2010,04:00,0.0,R,ugm-3,3.2,R,ugm-3,3.2,R,ugm-3,34,R,ugm-3,2.1,R,ugm-3
03-01-2010,05:00,0.8,R,ugm-3,3.2,R,ugm-3,4.4,R,ugm-3,32,R,ugm-3,1.6,R,ugm-3
03-01-2010,06:00,0.0,R,ugm-3,1.5,R,ugm-3,1.5,R,ugm-3,38,R,ugm-3,2.1,R,ugm-3
03-01-2010,07:00,0.0,R,ugm-3,2.1,R,ugm-3,2.1,R,ugm-3,36,R,ugm-3,2.1,R,ugm-3
03-01-2010,08:00,0.0,R,ugm-3,1.5,R,ugm-3,1.5,R,ugm-3,34,R,ugm-3,2.1,R,ugm-3
03-01-2010,09:00,0.8,R,ugm-3,3.2,R,ugm-3,4.4,R,ugm-3,32,R,ugm-3,2.1,R,ugm-3
03-01-2010,10:00,1.4,R,ugm-3,3.6,R,ugm-3,5.7,R,ugm-3,28,R,ugm-3,2.1,R,ugm-3
03-01-2010,11:00,1.4,R,ugm-3,4.2,R,ugm-3,6.3,R,ugm-3,32,R,ugm-3,2.7,R,ugm-3
03-01-2010,12:00,1.4,R,ugm-3,1.5,R,ugm-3,3.6,R,ugm-3,38,R,ugm-3,2.1,R,ugm-3
03-01-2010,13:00,1.8,R,ugm-3,3.2,R,ugm-3,5.9,R,ugm-3,36,R,ugm-3,2.1,R,ugm-3
03-01-2010,14:00,1.4,R,ugm-3,1.5,R,ugm-3,3.6,R,ugm-3,36,R,ugm-3,2.1,R,ugm-3
03-01-2010,15:00,1.4,R,ugm-3,2.7,R,ugm-3,4.8,R,ugm-3,32,R,ugm-3,2.1,R,ugm-3
03-01-2010,16:00,0.8,R,ugm-3,5.3,R,ugm-3,6.5,R,ugm-3,24,R,ugm-3,2.1,R,ugm-3
03-01-2010,17:00,0.4,R,ugm-3,10.1,R,ugm-3,10.7,R,ugm-3,18,R,ugm-3,2.1,R,ugm-3
03-01-2010,18:00,0.4,R,ugm-3,15.5,R,ugm-3,16.0,R,ugm-3,10,R,ugm-3,2.1,R,ugm-3
03-01-2010,19:00,0.8,R,ugm-3,12.2,R,ugm-3,13.4,R,ugm-3,12,R,ugm-3,2.1,R,ugm-3
03-01-2010,20:00,1.0,R,ugm-3,9.7,R,ugm-3,11.3,R,ugm-3,10,R,ugm-3,2.1,R,ugm-3
03-01-2010,21:00,0.4,R,ugm-3,10.7,R,ugm-3,11.3,R,ugm-3,10,R,ugm-3,2.7,R,ugm-3
03-01-2010,22:00,1.4,R,ugm-3,11.8,R,ugm-3,13.9,R,ugm-3,4,R,ugm-3,2.1,R,ugm-3
03-01-2010,23:00,0.4,R,ugm-3,15.5,R,ugm-3,16.0,R,ugm-3,4,R,ugm-3,2.1,R,ugm-3
03-01-2010,24:00,1.0,R,ugm-3,16.0,R,ugm-3,17.6,R,ugm-3,2,R,ugm-3,2.7,R,ugm-3
04-01-2010,01:00,0.5,R,ugm-3,20.4,R,ugm-3,21.2,R,ugm-3,4,R,ugm-3,2.9,R,ugm-3
04-01-2010,02:00,,,,,,,,,,2,R,ugm-3,2.1,R,ugm-3
04-01-2010,03:00,1.4,R,ugm-3,20.6,R,ugm-3,22.7,R,ugm-3,4,R,ugm-3,2.1,R,ugm-3
04-01-2010,04:00,1.4,R,ugm-3,24.4,R,ugm-3,26.5,R,ugm-3,4,R,ugm-3,2.1,R,ugm-3
04-01-2010,05:00,3.1,R,ugm-3,22.2,R,ugm-3,26.9,R,ugm-3,0,R,ugm-3,1.6,R,ugm-3
04-01-2010,06:00,1.4,R,ugm-3,24.4,R,ugm-3,26.5,R,ugm-3,4,R,ugm-3,2.1,R,ugm-3
04-01-2010,07:00,5.6,R,ugm-3,31.1,R,ugm-3,39.7,R,ugm-3,0,R,ugm-3,2.1,R,ugm-3
04-01-2010,08:00,11.3,R,ugm-3,32.7,R,ugm-3,49.9,R,ugm-3,0,R,ugm-3,2.1,R,ugm-3
04-01-2010,09:00,16.4,R,ugm-3,30.6,R,ugm-3,55.6,R,ugm-3,2,R,ugm-3,2.1,R,ugm-3
04-01-2010,10:00,20.0,R,ugm-3,26.7,R,ugm-3,57.3,R,ugm-3,8,R,ugm-3,2.1,R,ugm-3
04-01-2010,11:00,23.8,R,ugm-3,27.9,R,ugm-3,64.2,R,ugm-3,14,R,ugm-3,2.1,R,ugm-3
04-01-2010,12:00,25.5,R,ugm-3,27.3,R,ugm-3,66.3,R,ugm-3,16,R,ugm-3,2.1,R,ugm-3
04-01-2010,13:00,22.4,R,ugm-3,28.8,R,ugm-3,63.0,R,ugm-3,18,R,ugm-3,3.2,R,ugm-3
04-01-2010,14:00,15.4,R,ugm-3,25.8,R,ugm-3,49.3,R,ugm-3,22,R,ugm-3,4.3,R,ugm-3
04-01-2010,15:00,8.4,R,ugm-3,23.3,R,ugm-3,36.1,R,ugm-3,22,R,ugm-3,3.7,R,ugm-3
04-01-2010,16:00,12.3,R,ugm-3,35.3,R,ugm-3,54.1,R,ugm-3,10,R,ugm-3,3.2,R,ugm-3
04-01-2010,17:00,9.1,R,ugm-3,39.2,R,ugm-3,53.1,R,ugm-3,2,R,ugm-3,1.1,R,ugm-3
04-01-2010,18:00,21.0,R,ugm-3,39.0,R,ugm-3,71.1,R,ugm-3,0,R,ugm-3,2.1,R,ugm-3
04-01-2010,19:00,42.4,R,ugm-3,40.3,R,ugm-3,105.1,R,ugm-3,2,R,ugm-3,4.3,R,ugm-3
04-01-2010,20:00,53.5,R,ugm-3,43.9,R,ugm-3,125.7,R,ugm-3,2,R,ugm-3,4.3,R,ugm-3
04-01-2010,21:00,60.1,R,ugm-3,40.1,R,ugm-3,132.0,R,ugm-3,2,R,ugm-3,4.3,R,ugm-3
04-01-2010,22:00,55.5,R,ugm-3,39.5,R,ugm-3,124.3,R,ugm-3,2,R,ugm-3,4.3,R,ugm-3
04-01-2010,23:00,38.8,R,ugm-3,42.0,R,ugm-3,101.2,R,ugm-3,2,R,ugm-3,5.3,R,ugm-3
04-01-2010,24:00,17.9,R,ugm-3,39.5,R,ugm-3,66.9,R,ugm-3,2,R,ugm-3,4.3,R,ugm-3
05-01-2010,01:00,14.9,R,ugm-3,35.7,R,ugm-3,58.4,R,ugm-3,2,R,ugm-3,2.1,R,ugm-3
05-01-2010,02:00,,,,,,,,,,2,R,ugm-3,0.0,R,ugm-3
05-01-2010,03:00,9.8,R,ugm-3,37.1,R,ugm-3,52.0,R,ugm-3,2,R,ugm-3,0.5,R,ugm-3
05-01-2010,04:00,5.3,R,ugm-3,37.1,R,ugm-3,45.1,R,ugm-3,2,R,ugm-3,0.0,R,ugm-3
05-01-2010,05:00,1.4,R,ugm-3,35.0,R,ugm-3,37.1,R,ugm-3,4,R,ugm-3,0.0,R,ugm-3
05-01-2010,06:00,1.8,R,ugm-3,35.9,R,ugm-3,38.6,R,ugm-3,4,R,ugm-3,0.0,R,ugm-3
05-01-2010,07:00,3.1,R,ugm-3,40.3,R,ugm-3,45.1,R,ugm-3,2,R,ugm-3,0.0,R,ugm-3
05-01-2010,08:00,3.1,R,ugm-3,40.3,R,ugm-3,45.1,R,ugm-3,2,R,ugm-3,0.0,R,ugm-3
05-01-2010,09:00,2.5,R,ugm-3,32.3,R,ugm-3,36.1,R,ugm-3,10,R,ugm-3,2.1,R,ugm-3
05-01-2010,10:00,6.4,R,ugm-3,26.7,R,ugm-3,36.5,R,ugm-3,16,R,ugm-3,2.1,R,ugm-3
05-01-2010,11:00,11.9,R,ugm-3,28.5,R,ugm-3,46.6,R,ugm-3,16,R,ugm-3,2.1,R,ugm-3
05-01-2010,12:00,23.1,R,ugm-3,31.9,R,ugm-3,67.2,R,ugm-3,12,R,ugm-3,2.1,R,ugm-3
05-01-2010,13:00,18.9,R,ugm-3,33.6,R,ugm-3,62.5,R,ugm-3,14,R,ugm-3,3.7,R,ugm-3
05-01-2010,14:00,12.3,R,ugm-3,30.6,R,ugm-3,49.3,R,ugm-3,18,R,ugm-3,2.1,R,ugm-3
05-01-2010,15:00,10.5,R,ugm-3,30.8,R,ugm-3,46.8,R,ugm-3,16,R,ugm-3,2.1,R,ugm-3
05-01-2010,16:00,7.8,R,ugm-3,32.3,R,ugm-3,44.1,R,ugm-3,10,R,ugm-3,2.1,R,ugm-3
05-01-2010,17:00,11.5,R,ugm-3,36.3,R,ugm-3,53.9,R,ugm-3,2,R,ugm-3,2.1,R,ugm-3
05-01-2010,18:00,15.8,R,ugm-3,39.0,R,ugm-3,63.0,R,ugm-3,0,R,ugm-3,2.1,R,ugm-3
05-01-2010,19:00,28.3,R,ugm-3,43.5,R,ugm-3,86.7,R,ugm-3,2,R,ugm-3,3.7,R,ugm-3
05-01-2010,20:00,39.5,R,ugm-3,43.9,R,ugm-3,104.3,R,ugm-3,2,R,ugm-3,4.3,R,ugm-3
05-01-2010,21:00,37.8,R,ugm-3,46.2,R,ugm-3,103.9,R,ugm-3,2,R,ugm-3,4.3,R,ugm-3
05-01-2010,22:00,43.0,R,ugm-3,46.0,R,ugm-3,111.7,R,ugm-3,2,R,ugm-3,4.3,R,ugm-3
05-01-2010,23:00,44.8,R,ugm-3,44.3,R,ugm-3,112.7,R,ugm-3,2,R,ugm-3,4.8,R,ugm-3
05-01-2010,24:00,40.5,R,ugm-3,43.0,R,ugm-3,104.9,R,ugm-3,2,R,ugm-3,4.3,R,ugm-3
06-01-2010,01:00,36.8,R,ugm-3,46.0,R,ugm-3,102.2,R,ugm-3,2,R,ugm-3,6.4,R,ugm-3
06-01-2010,02:00,,,,,,,,,,2,R,ugm-3,6.4,R,ugm-3
06-01-2010,03:00,24.5,R,ugm-3,45.6,R,ugm-3,83.1,R,ugm-3,2,R,ugm-3,6.4,R,ugm-3
06-01-2010,04:00,28.6,R,ugm-3,42.6,R,ugm-3,86.3,R,ugm-3,6,R,ugm-3,6.4,R,ugm-3
06-01-2010,05:00,28.3,R,ugm-3,37.2,R,ugm-3,80.4,R,ugm-3,6,R,ugm-3,5.3,R,ugm-3
06-01-2010,06:00,23.1,R,ugm-3,42.0,R,ugm-3,77.4,R,ugm-3,2,R,ugm-3,6.4,R,ugm-3
06-01-2010,07:00,24.8,R,ugm-3,42.6,R,ugm-3,80.4,R,ugm-3,2,R,ugm-3,4.3,R,ugm-3
06-01-2010,08:00,20.3,R,ugm-3,41.4,R,ugm-3,72.4,R,ugm-3,2,R,ugm-3,4.3,R,ugm-3
06-01-2010,09:00,30.0,R,ugm-3,37.6,R,ugm-3,83.5,R,ugm-3,2,R,ugm-3,4.3,R,ugm-3
06-01-2010,10:00,34.9,R,ugm-3,38.2,R,ugm-3,91.5,R,ugm-3,2,R,ugm-3,4.8,R,ugm-3
06-01-2010,11:00,31.8,R,ugm-3,37.2,R,ugm-3,85.8,R,ugm-3,4,R,ugm-3,5.3,R,ugm-3
06-01-2010,12:00,14.6,R,ugm-3,34.8,R,ugm-3,57.1,R,ugm-3,8,R,ugm-3,4.3,R,ugm-3
06-01-2010,13:00,5.3,R,ugm-3,25.2,R,ugm-3,33.2,R,ugm-3,18,R,ugm-3,4.3,R,ugm-3
06-01-2010,14:00,2.1,R,ugm-3,10.1,R,ugm-3,13.4,R,ugm-3,44,R,ugm-3,2.7,R,ugm-3
06-01-2010,15:00,1.0,R,ugm-3,3.6,R,ugm-3,5.2,R,ugm-3,64,R,ugm-3,2.1,R,ugm-3
06-01-2010,16:00,0.8,R,ugm-3,4.2,R,ugm-3,5.3,R,ugm-3,66,R,ugm-3,2.1,R,ugm-3
06-01-2010,17:00,0.0,R,ugm-3,6.9,R,ugm-3,6.9,R,ugm-3,64,R,ugm-3,2.1,R,ugm-3
06-01-2010,18:00,1.0,R,ugm-3,6.3,R,ugm-3,7.8,R,ugm-3,62,R,ugm-3,2.1,R,ugm-3
06-01-2010,19:00,0.4,R,ugm-3,5.7,R,ugm-3,6.3,R,ugm-3,64,R,ugm-3,1.6,R,ugm-3
06-01-2010,20:00,0.4,R,ugm-3,7.8,R,ugm-3,8.4,R,ugm-3,62,R,ugm-3,1.6,R,ugm-3
06-01-2010,21:00,0.0,R,ugm-3,3.6,R,ugm-3,3.6,R,ugm-3,70,R,ugm-3,2.1,R,ugm-3
06-01-2010,22:00,1.0,R,ugm-3,5.3,R,ugm-3,6.9,R,ugm-3,62,R,ugm-3,2.1,R,ugm-3
06-01-2010,23:00,0.8,R,ugm-3,4.2,R,ugm-3,5.3,R,ugm-3,64,R,ugm-3,2.1,R,ugm-3
06-01-2010,24:00,0.8,R,ugm-3,8.4,R,ugm-3,9.6,R,ugm-3,58,R,ugm-3,2.1,R,ugm-3
07-01-2010,01:00,0.9,R,ugm-3,7.1,R,ugm-3,8.4,R,ugm-3,56,R,ugm-3,2.1,R,ugm-3
07-01-2010,02:00,,,,,,,,,,54,R,ugm-3,2.9,R,ugm-3
07-01-2010,03:00,0.0,R,ugm-3,11.1,R,ugm-3,11.1,R,ugm-3,58,R,ugm-3,3.2,R,ugm-3
07-01-2010,04:00,0.4,R,ugm-3,9.0,R,ugm-3,9.6,R,ugm-3,60,R,ugm-3,2.7,R,ugm-3
07-01-2010,05:00,0.0,R,ugm-3,11.1,R,ugm-3,11.1,R,ugm-3,56,R,ugm-3,3.7,R,ugm-3
07-01-2010,06:00,1.0,R,ugm-3,11.1,R,ugm-3,12.6,R,ugm-3,52,R,ugm-3,4.3,R,ugm-3
07-01-2010,07:00,0.4,R,ugm-3,10.5,R,ugm-3,11.1,R,ugm-3,54,R,ugm-3,4.3,R,ugm-3
07-01-2010,08:00,1.0,R,ugm-3,14.3,R,ugm-3,15.9,R,ugm-3,52,R,ugm-3,6.9,R,ugm-3
07-01-2010,09:00,1.4,R,ugm-3,18.0,R,ugm-3,20.1,R,ugm-3,50,R,ugm-3,9.6,R,ugm-3
07-01-2010,10:00,1.4,R,ugm-3,13.8,R,ugm-3,15.9,R,ugm-3,58,R,ugm-3,5.9,R,ugm-3
07-01-2010,11:00,1.8,R,ugm-3,11.7,R,ugm-3,14.3,R,ugm-3,58,R,ugm-3,4.3,R,ugm-3
07-01-2010,12:00,2.8,R,ugm-3,9.6,R,ugm-3,13.8,R,ugm-3,60,R,ugm-3,4.3,R,ugm-3
07-01-2010,13:00,2.8,R,ugm-3,12.6,R,ugm-3,16.8,R,ugm-3,58,R,ugm-3,4.3,R,ugm-3
07-01-2010,14:00,2.8,R,ugm-3,13.2,R,ugm-3,17.4,R,ugm-3,56,R,ugm-3,4.3,R,ugm-3
07-01-2010,15:00,2.4,R,ugm-3,14.9,R,ugm-3,18.5,R,ugm-3,52,R,ugm-3,4.3,R,ugm-3
07-01-2010,16:00,1.8,R,ugm-3,14.1,R,ugm-3,16.8,R,ugm-3,52,R,ugm-3,3.7,R,ugm-3
07-01-2010,17:00,1.4,R,ugm-3,9.9,R,ugm-3,12.0,R,ugm-3,52,R,ugm-3,2.1,R,ugm-3
07-01-2010,18:00,0.0,R,ugm-3,11.1,R,ugm-3,11.1,R,ugm-3,54,R,ugm-3,2.1,R,ugm-3
07-01-2010,19:00,0.0,R,ugm-3,12.0,R,ugm-3,12.0,R,ugm-3,48,R,ugm-3,2.1,R,ugm-3
07-01-2010,20:00,0.0,R,ugm-3,11.7,R,ugm-3,11.7,R,ugm-3,50,R,ugm-3,2.1,R,ugm-3
07-01-2010,21:00,1.4,R,ugm-3,9.6,R,ugm-3,11.7,R,ugm-3,48,R,ugm-3,1.6,R,ugm-3
07-01-2010,22:00,1.0,R,ugm-3,11.1,R,ugm-3,12.6,R,ugm-3,44,R,ugm-3,1.1,R,ugm-3
07-01-2010,23:00,1.0,R,ugm-3,9.9,R,ugm-3,11.5,R,ugm-3,44,R,ugm-3,2.1,R,ugm-3
07-01-2010,24:00,0.8,R,ugm-3,14.1,R,ugm-3,15.3,R,ugm-3,40,R,ugm-3,2.1,R,ugm-3
08-01-2010,01:00,0.0,R,ugm-3,13.9,R,ugm-3,13.9,R,ugm-3,34,R,ugm-3,2.1,R,ugm-3
08-01-2010,02:00,,,,,,,,,,24,R,ugm-3,1.3,R,ugm-3
08-01-2010,03:00,0.0,R,ugm-3,19.5,R,ugm-3,19.5,R,ugm-3,28,R,ugm-3,2.7,R,ugm-3
08-01-2010,04:00,1.0,R,ugm-3,15.9,R,ugm-3,17.4,R,ugm-3,32,R,ugm-3,2.1,R,ugm-3
08-01-2010,05:00,0.4,R,ugm-3,12.6,R,ugm-3,13.2,R,ugm-3,36,R,ugm-3,2.1,R,ugm-3
08-01-2010,06:00,0.4,R,ugm-3,6.3,R,ugm-3,6.9,R,ugm-3,50,R,ugm-3,1.1,R,ugm-3
08-01-2010,07:00,1.0,R,ugm-3,6.9,R,ugm-3,8.4,R,ugm-3,48,R,ugm-3,0.0,R,ugm-3
08-01-2010,08:00,0.4,R,ugm-3,7.8,R,ugm-3,8.4,R,ugm-3,50,R,ugm-3,0.0,R,ugm-3
08-01-2010,09:00,0.4,R,ugm-3,7.8,R,ugm-3,8.4,R,ugm-3,54,R,ugm-3,0.0,R,ugm-3
08-01-2010,10:00,1.8,R,ugm-3,9.6,R,ugm-3,12.2,R,ugm-3,48,R,ugm-3,0.5,R,ugm-3
08-01-2010,11:00,5.3,R,ugm-3,13.2,R,ugm-3,21.2,R,ugm-3,42,R,ugm-3,1.6,R,ugm-3
08-01-2010,12:00,6.0,R,ugm-3,15.3,R,ugm-3,24.4,R,ugm-3,40,R,ugm-3,2.1,R,ugm-3
08-01-2010,13:00,7.0,R,ugm-3,12.6,R,ugm-3,23.3,R,ugm-3,40,R,ugm-3,2.1,R,ugm-3
08-01-2010,14:00,6.4,R,ugm-3,14.7,R,ugm-3,24.4,R,ugm-3,38,R,ugm-3,3.2,R,ugm-3
08-01-2010,15:00,2.4,R,ugm-3,9.0,R,ugm-3,12.6,R,ugm-3,44,R,ugm-3,1.1,R,ugm-3
08-01-2010,16:00,1.4,R,ugm-3,11.1,R,ugm-3,13.2,R,ugm-3,44,R,ugm-3,0.5,R,ugm-3
08-01-2010,17:00,0.8,R,ugm-3,19.5,R,ugm-3,20.6,R,ugm-3,30,R,ugm-3,0.0,R,ugm-3
08-01-2010,18:00,0.8,R,ugm-3,21.8,R,ugm-3,22.9,R,ugm-3,30,R,ugm-3,1.1,R,ugm-3
08-01-2010,19:00,1.0,R,ugm-3,20.1,R,ugm-3,21.6,R,ugm-3,30,R,ugm-3,0.5,R,ugm-3
08-01-2010,20:00,1.0,R,ugm-3,17.4,R,ugm-3,18.9,R,ugm-3,30,R,ugm-3,0.5,R,ugm-3
08-01-2010,21:00,1.4,R,ugm-3,15.3,R,ugm-3,17.4,R,ugm-3,34,R,ugm-3,2.1,R,ugm-3
08-01-2010,22:00,1.4,R,ugm-3,4.8,R,ugm-3,6.9,R,ugm-3,50,R,ugm-3,0.0,R,ugm-3
08-01-2010,23:00,1.0,R,ugm-3,1.1,R,ugm-3,2.7,R,ugm-3,58,R,ugm-3,0.0,R,ugm-3
08-01-2010,24:00,0.4,R,ugm-3,1.5,R,ugm-3,2.1,R,ugm-3,58,R,ugm-3,0.0,R,ugm-3
09-01-2010,01:00,0.5,R,ugm-3,5.0,R,ugm-3,5.7,R,ugm-3,54,R,ugm-3,0.0,R,ugm-3
09-01-2010,02:00,,,,,,,,,,56,R,ugm-3,0.0,R,ugm-3
09-01-2010,03:00,0.0,R,ugm-3,5.3,R,ugm-3,5.3,R,ugm-3,54,R,ugm-3,0.0,R,ugm-3
09-01-2010,04:00,0.8,R,ugm-3,3.6,R,ugm-3,4.8,R,ugm-3,50,R,ugm-3,0.0,R,ugm-3
09-01-2010,05:00,0.8,R,ugm-3,4.2,R,ugm-3,5.3,R,ugm-3,50,R,ugm-3,0.0,R,ugm-3
09-01-2010,06:00,0.0,R,ugm-3,4.2,R,ugm-3,4.2,R,ugm-3,50,R,ugm-3,0.0,R,ugm-3
09-01-2010,07:00,0.4,R,ugm-3,4.8,R,ugm-3,5.3,R,ugm-3,46,R,ugm-3,0.0,R,ugm-3
09-01-2010,08:00,0.8,R,ugm-3,3.6,R,ugm-3,4.8,R,ugm-3,50,R,ugm-3,0.0,R,ugm-3
09-01-2010,09:00,0.4,R,ugm-3,4.8,R,ugm-3,5.3,R,ugm-3,54,R,ugm-3,0.0,R,ugm-3
09-01-2010,10:00,1.4,R,ugm-3,5.7,R,ugm-3,7.8,R,ugm-3,54,R,ugm-3,0.0,R,ugm-3
09-01-2010,11:00,1.4,R,ugm-3,4.8,R,ugm-3,6.9,R,ugm-3,56,R,ugm-3,0.0,R,ugm-3
09-01-2010,12:00,1.0,R,ugm-3,1.5,R,ugm-3,3.1,R,ugm-3,60,R,ugm-3,0.0,R,ugm-3
09-01-2010,13:00,0.8,R,ugm-3,1.1,R,ugm-3,2.3,R,ugm-3,62,R,ugm-3,0.0,R,ugm-3
09-01-2010,14:00,1.4,R,ugm-3,0.6,R,ugm-3,2.7,R,ugm-3,66,R,ugm-3,0.0,R,ugm-3
09-01-2010,15:00,0.4,R,ugm-3,2.1,R,ugm-3,2.7,R,ugm-3,64,R,ugm-3,0.0,R,ugm-3
09-01-2010,16:00,0.8,R,ugm-3,1.5,R,ugm-3,2.7,R,ugm-3,64,R,ugm-3,0.0,R,ugm-3
09-01-2010,17:00,0.4,R,ugm-3,3.6,R,ugm-3,4.2,R,ugm-3,62,R,ugm-3,0.0,R,ugm-3
09-01-2010,18:00,0.8,R,ugm-3,2.1,R,ugm-3,3.2,R,ugm-3,62,R,ugm-3,0.0,R,ugm-3
09-01-2010,19:00,0.0,R,ugm-3,2.1,R,ugm-3,2.1,R,ugm-3,64,R,ugm-3,0.0,R,ugm-3
09-01-2010,20:00,0.4,R,ugm-3,1.5,R,ugm-3,2.1,R,ugm-3,64,R,ugm-3,0.0,R,ugm-3
09-01-2010,21:00,0.4,R,ugm-3,1.5,R,ugm-3,2.1,R,ugm-3,62,R,ugm-3,0.0,R,ugm-3
09-01-2010,22:00,0.8,R,ugm-3,0.6,R,ugm-3,1.7,R,ugm-3,62,R,ugm-3,0.0,R,ugm-3
09-01-2010,23:00,0.4,R,ugm-3,1.1,R,ugm-3,1.7,R,ugm-3,64,R,ugm-3,0.0,R,ugm-3
09-01-2010,24:00,0.0,R,ugm-3,1.3,R,ugm-3,1.3,R,ugm-3,62,R,ugm-3,0.0,R,ugm-3
10-01-2010,01:00,0.5,R,ugm-3,0.8,R,ugm-3,1.5,R,ugm-3,66,R,ugm-3,0.0,R,ugm-3
10-01-2010,02:00,,,,,,,,,,70,R,ugm-3,0.0,R,ugm-3
10-01-2010,03:00,0.8,R,ugm-3,3.2,R,ugm-3,4.4,R,ugm-3,74,R,ugm-3,0.0,R,ugm-3
10-01-2010,04:00,0.4,R,ugm-3,1.5,R,ugm-3,2.1,R,ugm-3,74,R,ugm-3,0.0,R,ugm-3
10-01-2010,05:00,0.4,R,ugm-3,2.7,R,ugm-3,3.2,R,ugm-3,74,R,ugm-3,0.0,R,ugm-3
10-01-2010,06:00,0.4,R,ugm-3,1.5,R,ugm-3,2.1,R,ugm-3,70,R,ugm-3,0.0,R,ugm-3
10-01-2010,07:00,0.4,R,ugm-3,2.1,R,ugm-3,2.7,R,ugm-3,68,R,ugm-3,1.6,R,ugm-3
10-01-2010,08:00,0.0,R,ugm-3,2.1,R,ugm-3,2.1,R,ugm-3,68,R,ugm-3,0.5,R,ugm-3
10-01-2010,09:00,0.4,R,ugm-3,1.1,R,ugm-3,1.7,R,ugm-3,70,R,ugm-3,0.5,R,ugm-3
10-01-2010,10:00,0.8,R,ugm-3,1.5,R,ugm-3,2.7,R,ugm-3,68,R,ugm-3,0.0,R,ugm-3
10-01-2010,11:00,0.4,R,ugm-3,3.2,R,ugm-3,3.8,R,ugm-3,72,R,ugm-3,1.1,R,ugm-3
10-01-2010,12:00,0.8,R,ugm-3,2.7,R,ugm-3,3.8,R,ugm-3,70,R,ugm-3,0.0,R,ugm-3
10-01-2010,13:00,0.8,R,ugm-3,2.1,R,ugm-3,3.2,R,ugm-3,68,R,ugm-3,0.5,R,ugm-3
10-01-2010,14:00,0.8,R,ugm-3,2.1,R,ugm-3,3.2,R,ugm-3,70,R,ugm-3,0.5,R,ugm-3
10-01-2010,15:00,0.8,R,ugm-3,2.7,R,ugm-3,3.8,R,ugm-3,66,R,ugm-3,1.1,R,ugm-3
10-01-2010,16:00,0.8,R,ugm-3,3.2,R,ugm-3,4.4,R,ugm-3,64,R,ugm-3,1.6,R,ugm-3
10-01-2010,17:00,0.4,R,ugm-3,4.2,R,ugm-3,4.8,R,ugm-3,64,R,ugm-3,0.0,R,ugm-3
10-01-2010,18:00,0.0,R,ugm-3,4.2,R,ugm-3,4.2,R,ugm-3,64,R,ugm-3,1.1,R,ugm-3
10-01-2010,19:00,0.4,R,ugm-3,4.2,R,ugm-3,4.8,R,ugm-3,58,R,ugm-3,0.5,R,ugm-3
10-01-2010,20:00,0.8,R,ugm-3,4.2,R,ugm-3,5.3,R,ugm-3,58,R,ugm-3,2.1,R,ugm-3
10-01-2010,21:00,0.4,R,ugm-3,4.8,R,ugm-3,5.3,R,ugm-3,58,R,ugm-3,1.1,R,ugm-3
10-01-2010,22:00,0.4,R,ugm-3,3.2,R,ugm-3,3.8,R,ugm-3,54,R,ugm-3,1.1,R,ugm-3
10-01-2010,23:00,1.0,R,ugm-3,2.7,R,ugm-3,4.2,R,ugm-3,56,R,ugm-3,0.5,R,ugm-3
10-01-2010,24:00,0.4,R,ugm-3,3.6,R,ugm-3,4.2,R,ugm-3,54,R,ugm-3,2.1,R,ugm-3
11-01-2010,01:00,0.0,R,ugm-3,4.2,R,ugm-3,4.2,R,ugm-3,54,R,ugm-3,0.8,R,ugm-3
11-01-2010,02:00,,,,,,,,,,50,R,ugm-3,0.0,R,ugm-3
11-01-2010,03:00,0.8,R,ugm-3,5.7,R,ugm-3,6.9,R,ugm-3,52,R,ugm-3,1.6,R,ugm-3
11-01-2010,04:00,0.4,R,ugm-3,4.2,R,ugm-3,4.8,R,ugm-3,52,R,ugm-3,0.0,R,ugm-3
11-01-2010,05:00,0.0,R,ugm-3,4.2,R,ugm-3,4.2,R,ugm-3,48,R,ugm-3,1.1,R,ugm-3
11-01-2010,06:00,0.0,R,ugm-3,6.9,R,ugm-3,6.9,R,ugm-3,42,R,ugm-3,2.1,R,ugm-3
11-01-2010,07:00,0.0,R,ugm-3,9.9,R,ugm-3,9.9,R,ugm-3,38,R,ugm-3,1.6,R,ugm-3
11-01-2010,08:00,0.0,R,ugm-3,14.7,R,ugm-3,14.7,R,ugm-3,30,R,ugm-3,0.0,R,ugm-3
11-01-2010,09:00,1.0,R,ugm-3,18.3,R,ugm-3,19.9,R,ugm-3,28,R,ugm-3,1.1,R,ugm-3
11-01-2010,10:00,2.4,R,ugm-3,19.5,R,ugm-3,23.1,R,ugm-3,20,R,ugm-3,2.1,R,ugm-3
11-01-2010,11:00,1.4,R,ugm-3,14.7,R,ugm-3,16.8,R,ugm-3,28,R,ugm-3,0.5,R,ugm-3
11-01-2010,12:00,1.4,R,ugm-3,15.3,R,ugm-3,17.4,R,ugm-3,28,R,ugm-3,0.5,R,ugm-3
11-01-2010,13:00,1.4,R,ugm-3,16.2,R,ugm-3,18.3,R,ugm-3,28,R,ugm-3,2.1,R,ugm-3
11-01-2010,14:00,1.4,R,ugm-3,16.2,R,ugm-3,18.3,R,ugm-3,34,R,ugm-3,0.5,R,ugm-3
11-01-2010,15:00,1.8,R,ugm-3,19.5,R,ugm-3,22.2,R,ugm-3,26,R,ugm-3,2.1,R,ugm-3
11-01-2010,16:00,,,,,,,,,,18,R,ugm-3,,,
11-01-2010,17:00,,,,,,,,,,,,,,,
11-01-2010,18:00,,,,,,,,,,,,,,,
11-01-2010,19:00,0.4,R,ugm-3,25.2,R,ugm-3,25.8,R,ugm-3,4,R,ugm-3,,,
11-01-2010,20:00,2.4,R,ugm-3,27.3,R,ugm-3,30.9,R,ugm-3,2,R,ugm-3,1.6,R,ugm-3
11-01-2010,21:00,1.4,R,ugm-3,34.8,R,ugm-3,36.9,R,ugm-3,4,R,ugm-3,2.1,R,ugm-3
11-01-2010,22:00,1.0,R,ugm-3,30.0,R,ugm-3,31.5,R,ugm-3,12,R,ugm-3,2.1,R,ugm-3
11-01-2010,23:00,1.4,R,ugm-3,24.6,R,ugm-3,26.7,R,ugm-3,14,R,ugm-3,1.1,R,ugm-3
11-01-2010,24:00,0.4,R,ugm-3,21.0,R,ugm-3,21.6,R,ugm-3,12,R,ugm-3,1.6,R,ugm-3
12-01-2010,01:00,0.5,R,ugm-3,17.6,R,ugm-3,18.3,R,ugm-3,14,R,ugm-3,2.1,R,ugm-3
12-01-2010,02:00,,,,,,,,,,20,R,ugm-3,2.1,R,ugm-3
12-01-2010,03:00,0.8,R,ugm-3,16.2,R,ugm-3,17.4,R,ugm-3,18,R,ugm-3,2.1,R,ugm-3
12-01-2010,04:00,1.0,R,ugm-3,19.5,R,ugm-3,21.0,R,ugm-3,14,R,ugm-3,2.1,R,ugm-3
12-01-2010,05:00,0.8,R,ugm-3,22.2,R,ugm-3,23.3,R,ugm-3,12,R,ugm-3,1.6,R,ugm-3
12-01-2010,06:00,0.8,R,ugm-3,13.8,R,ugm-3,14.9,R,ugm-3,24,R,ugm-3,2.1,R,ugm-3
12-01-2010,07:00,0.4,R,ugm-3,14.7,R,ugm-3,15.3,R,ugm-3,30,R,ugm-3,2.7,R,ugm-3
12-01-2010,08:00,0.4,R,ugm-3,17.4,R,ugm-3,18.0,R,ugm-3,34,R,ugm-3,3.2,R,ugm-3
12-01-2010,09:00,1.4,R,ugm-3,30.9,R,ugm-3,33.0,R,ugm-3,20,R,ugm-3,4.3,R,ugm-3
12-01-2010,10:00,4.5,R,ugm-3,36.9,R,ugm-3,43.7,R,ugm-3,16,R,ugm-3,4.3,R,ugm-3
12-01-2010,11:00,2.1,R,ugm-3,18.3,R,ugm-3,21.6,R,ugm-3,28,R,ugm-3,2.1,R,ugm-3
12-01-2010,12:00,5.1,R,ugm-3,24.6,R,ugm-3,32.5,R,ugm-3,20,R,ugm-3,6.9,R,ugm-3
12-01-2010,13:00,5.9,R,ugm-3,22.2,R,ugm-3,31.1,R,ugm-3,24,R,ugm-3,8.0,R,ugm-3
12-01-2010,14:00,3.8,R,ugm-3,22.5,R,ugm-3,28.3,R,ugm-3,28,R,ugm-3,6.4,R,ugm-3
12-01-2010,15:00,1.8,R,ugm-3,15.3,R,ugm-3,18.0,R,ugm-3,40,R,ugm-3,5.3,R,ugm-3
12-01-2010,16:00,1.4,R,ugm-3,20.4,R,ugm-3,22.5,R,ugm-3,34,R,ugm-3,6.4,R,ugm-3
12-01-2010,17:00,1.4,R,ugm-3,28.5,R,ugm-3,30.6,R,ugm-3,22,R,ugm-3,6.4,R,ugm-3
12-01-2010,18:00,0.8,R,ugm-3,34.8,R,ugm-3,35.9,R,ugm-3,18,R,ugm-3,6.9,R,ugm-3
12-01-2010,19:00,1.4,R,ugm-3,39.0,R,ugm-3,41.1,R,ugm-3,12,R,ugm-3,4.8,R,ugm-3
12-01-2010,20:00,1.0,R,ugm-3,40.5,R,ugm-3,42.0,R,ugm-3,10,R,ugm-3,4.3,R,ugm-3
12-01-2010,21:00,1.4,R,ugm-3,33.0,R,ugm-3,35.1,R,ugm-3,14,R,ugm-3,4.3,R,ugm-3
12-01-2010,22:00,1.4,R,ugm-3,32.1,R,ugm-3,34.2,R,ugm-3,16,R,ugm-3,4.8,R,ugm-3
12-01-2010,23:00,1.0,R,ugm-3,33.6,R,ugm-3,35.1,R,ugm-3,10,R,ugm-3,3.7,R,ugm-3
12-01-2010,24:00,0.8,R,ugm-3,37.2,R,ugm-3,38.4,R,ugm-3,8,R,ugm-3,5.9,R,ugm-3
13-01-2010,01:00,0.9,R,ugm-3,35.0,R,ugm-3,36.3,R,ugm-3,8,R,ugm-3,0.0,R,ugm-3
13-01-2010,02:00,,,,,,,,,,2,R,ugm-3,0.8,R,ugm-3
13-01-2010,03:00,7.6,R,ugm-3,45.6,R,ugm-3,57.3,R,ugm-3,2,R,ugm-3,2.1,R,ugm-3
13-01-2010,04:00,6.5,R,ugm-3,42.0,R,ugm-3,52.0,R,ugm-3,2,R,ugm-3,1.6,R,ugm-3
13-01-2010,05:00,5.1,R,ugm-3,41.4,R,ugm-3,49.3,R,ugm-3,2,R,ugm-3,2.1,R,ugm-3
13-01-2010,06:00,3.1,R,ugm-3,39.9,R,ugm-3,44.7,R,ugm-3,2,R,ugm-3,3.2,R,ugm-3
13-01-2010,07:00,1.8,R,ugm-3,36.9,R,ugm-3,39.5,R,ugm-3,4,R,ugm-3,2.7,R,ugm-3
13-01-2010,08:00,1.8,R,ugm-3,37.2,R,ugm-3,39.9,R,ugm-3,4,R,ugm-3,2.1,R,ugm-3
13-01-2010,09:00,2.4,R,ugm-3,33.0,R,ugm-3,36.7,R,ugm-3,6,R,ugm-3,2.1,R,ugm-3
13-01-2010,10:00,3.1,R,ugm-3,31.5,R,ugm-3,36.3,R,ugm-3,12,R,ugm-3,3.7,R,ugm-3
13-01-2010,11:00,5.9,R,ugm-3,28.8,R,ugm-3,37.8,R,ugm-3,8,R,ugm-3,1.1,R,ugm-3
13-01-2010,12:00,6.5,R,ugm-3,28.8,R,ugm-3,38.8,R,ugm-3,10,R,ugm-3,3.7,R,ugm-3
13-01-2010,13:00,5.9,R,ugm-3,26.4,R,ugm-3,35.3,R,ugm-3,10,R,ugm-3,2.7,R,ugm-3
13-01-2010,14:00,8.6,R,ugm-3,25.8,R,ugm-3,39.0,R,ugm-3,8,R,ugm-3,1.1,R,ugm-3
13-01-2010,15:00,11.1,R,ugm-3,27.7,R,ugm-3,44.7,R,ugm-3,8,R,ugm-3,1.6,R,ugm-3
13-01-2010,16:00,10.4,R,ugm-3,27.1,R,ugm-3,43.0,R,ugm-3,6,R,ugm-3,0.5,R,ugm-3
13-01-2010,17:00,9.8,R,ugm-3,36.1,R,ugm-3,51.0,R,ugm-3,4,R,ugm-3,2.1,R,ugm-3
13-01-2010,18:00,16.6,R,ugm-3,35.0,R,ugm-3,60.4,R,ugm-3,2,R,ugm-3,0.5,R,ugm-3
13-01-2010,19:00,15.6,R,ugm-3,32.5,R,ugm-3,56.3,R,ugm-3,2,R,ugm-3,1.6,R,ugm-3
13-01-2010,20:00,15.6,R,ugm-3,28.7,R,ugm-3,52.5,R,ugm-3,2,R,ugm-3,0.0,R,ugm-3
13-01-2010,21:00,25.0,R,ugm-3,34.4,R,ugm-3,72.6,R,ugm-3,2,R,ugm-3,0.5,R,ugm-3
13-01-2010,22:00,3.5,R,ugm-3,37.8,R,ugm-3,43.2,R,ugm-3,2,R,ugm-3,1.1,R,ugm-3
13-01-2010,23:00,4.9,R,ugm-3,35.7,R,ugm-3,43.2,R,ugm-3,2,R,ugm-3,0.5,R,ugm-3
13-01-2010,24:00,5.5,R,ugm-3,34.8,R,ugm-3,43.2,R,ugm-3,2,R,ugm-3,1.1,R,ugm-3
14-01-2010,01:00,7.8,R,ugm-3,39.9,R,ugm-3,51.8,R,ugm-3,2,R,ugm-3,4.3,R,ugm-3